Location: Dover
(39.1580°N, 75.5250°W)
Time: 19:37:30
(UTC-04:00)

SeaSat 1 - Visible Passes

Search period start: 23 April 2017 00:00
Search period end: 03 May 2017 00:00
Orbit: 744 x 748 km, 108.0° (Epoch: 22 April)

Date Brightness Start Highest point End Pass type
(mag) Time Alt. Az. Time Alt. Az. Time Alt. Az.
23 Apr 4.7 20:24:03 10° NE 20:24:12 10° NE 20:24:21 10° NE visible
23 Apr 2.4 22:00:11 58° E 22:00:49 64° ENE 22:05:43 10° NNW visible
23 Apr 4.9 23:39:59 14° W 23:39:59 14° W 23:41:34 10° WNW visible
24 Apr 3.8 21:17:14 20° E 21:19:06 26° NE 21:23:08 10° N visible
24 Apr 3.4 22:57:02 40° W 22:57:02 40° W 23:01:05 10° NW visible
25 Apr 4.6 20:36:22 10° ENE 20:37:42 11° NE 20:39:01 10° NNE visible
25 Apr 2.3 22:14:04 68° E 22:14:23 71° ENE 22:19:18 10° NNW visible
25 Apr 5.0 23:53:52 12° W 23:53:52 12° W 23:54:46 10° WNW visible
26 Apr 3.6 21:31:07 24° E 21:32:38 28° NE 21:36:48 10° N visible
26 Apr 3.7 23:10:54 35° W 23:10:54 35° W 23:14:35 10° NW visible
27 Apr 4.6 20:49:20 10° ENE 20:51:11 12° NE 20:53:02 10° NNE visible
27 Apr 2.3 22:27:56 78° ENE 22:27:56 78° ENE 22:32:53 10° NNW visible
28 Apr 5.1 00:07:43 10° W 00:07:43 10° W 00:07:52 10° W visible
28 Apr 3.5 21:44:57 27° E 21:46:09 30° NE 21:50:27 10° N visible
28 Apr 3.9 23:24:45 30° W 23:24:45 30° W 23:28:05 10° NW visible
29 Apr 4.6 21:02:25 10° ENE 21:04:41 13° NE 21:06:56 10° NNE visible
29 Apr 2.4 22:41:46 80° N 22:41:46 80° N 22:46:27 10° NNW visible
30 Apr 3.4 21:58:47 31° ENE 21:59:42 33° NE 22:04:06 10° N visible
30 Apr 4.1 23:38:34 27° WNW 23:38:34 27° WNW 23:41:32 10° NW visible
01 May 4.5 21:15:48 11° ENE 21:18:11 14° NE 21:20:46 10° NNE visible
01 May 2.6 22:55:35 72° NW 22:55:35 72° NW 23:00:02 10° NNW visible
02 May 3.2 22:12:35 35° ENE 22:13:14 36° ENE 22:17:44 10° N visible
02 May 4.3 23:52:23 23° WNW 23:52:23 23° WNW 23:54:59 10° NW visible
